Torna al catalogo

STARLINK-5704

AttivoComunicazioniVLEO
NORAD 55486·PAYLOAD·🇺🇸 United States

Lanciato Feb 2, 2023 da Cape Canaveral Space Force Station

Loading…

Prossimi Passaggi (prossime 24 ore)

TLE

AggiornatoSource: CelesTrak SupGP

Epoca: Sep 14, 2026, 20:52 UTC

1 55486C 23015AP  26257.86993056 -.00014773  00000+0 -29151-3 0  2578
2 55486  43.0007 349.3470 0001535 296.0326 304.5661 15.46315075    19

Traccia STARLINK-5704 in tempo reale con AllMySat

Download on the App Store